Weather History for Spencer, IA

Change the Weather History Date:

Wednesday, July 10, 2013

  Actual Average Record
Temperature  
Mean Temperature 72 °F -  
Max Temperature 82 °F 84 °F 99 °F (1976)
Min Temperature 62 °F 62 °F 48 °F (1996)
Cooling Degree Days 6    
Growing Degree Days 22 (Base 50)    
Moisture  
Dew Point 56 °F    
Average Humidity 62    
Maximum Humidity 87    
Minimum Humidity 34    
Precipitation  
Precipitation 0.00 in - - ()
Sea Level Pressure  
Sea Level Pressure 30.06 in    
Wind  
Wind Speed 8 mph (North)    
Max Wind Speed 14 mph    
Max Gust Speed 20 mph    
Visibility 10 miles    
Events      
Averages and records for this station are not official NWS values.
T = Trace of Precipitation, MM = Missing Value Source: NWS Daily Summary

Daily Weather History Graph

Daily Weather History Graph

Search for Another Location

Airport:

Trip Planner

Search our weather history database for the weather conditions in past years. The results will help you decide how hot, cold, wet, or windy it might be!

Date:

Astronomy

Jul. 10, 2013 Rise Set
Actual Time 5:50 AM CDT 9:01 PM CDT
Civil Twilight 5:16 AM CDT 9:35 PM CDT
Nautical Twilight 4:31 AM CDT 10:20 PM CDT
Astronomical Twilight 3:37 AM CDT 11:13 PM CDT
Moon 8:17 AM CDT (7/10) 10:05 PM CDT (7/10)
Length of Visible Light 16h 19m
Length of Day
15h 10m
Waxing Crescent, 5% of the Moon is Illuminated
Jul 10
Waxing Crescent
Jul 15
First Quarter
Jul 22
Full
Jul 29
Last Quarter
Aug 6
New

Hourly Weather History & Observations

Time (CDT) Temp. Heat Index Dew Point Humidity Pressure Visibility Wind Dir Wind Speed Gust Speed Precip Events Conditions
12:53 AM 69.1 °F - 64.9 °F 87% 29.98 in 10.0 mi NNW 8.1 mph - N/A   Clear
1:53 AM 70.0 °F - 66.0 °F 87% 29.99 in 10.0 mi North 10.4 mph - N/A   Clear
2:53 AM 68.0 °F - 63.0 °F 84% 30.01 in 10.0 mi North 10.4 mph - N/A   Clear
3:53 AM 66.0 °F - 61.0 °F 84% 30.04 in 10.0 mi North 10.4 mph - N/A   Clear
4:53 AM 64.0 °F - 60.1 °F 87% 30.05 in 10.0 mi North 9.2 mph - N/A   Clear
5:53 AM 63.0 °F - 57.9 °F 84% 30.07 in 10.0 mi North 6.9 mph - N/A   Clear
6:53 AM 63.0 °F - 57.9 °F 84% 30.07 in 10.0 mi NNW 5.8 mph - N/A   Clear
7:42 AM 64.4 °F - 57.2 °F 77% 30.11 in 10.0 mi North 11.5 mph - N/A   Partly Cloudy
7:53 AM 66.0 °F - 57.0 °F 73% 30.09 in 10.0 mi North 10.4 mph - N/A   Clear
8:53 AM 69.1 °F - 55.9 °F 63% 30.10 in 10.0 mi North 12.7 mph - N/A   Clear
9:53 AM 72.0 °F - 53.1 °F 51% 30.10 in 10.0 mi North 13.8 mph - N/A   Clear
10:53 AM 73.0 °F - 53.1 °F 49% 30.09 in 10.0 mi North 13.8 mph - N/A   Clear
11:53 AM 75.0 °F - 53.1 °F 46% 30.10 in 10.0 mi North 12.7 mph 19.6 mph N/A   Clear
12:53 PM 77.0 °F - 52.0 °F 42% 30.09 in 10.0 mi NNE 8.1 mph - N/A   Clear
1:53 PM 79.0 °F - 50.0 °F 36% 30.09 in 10.0 mi North 9.2 mph - N/A   Clear
2:53 PM 81.0 °F 80.4 °F 53.1 °F 38% 30.09 in 10.0 mi North 9.2 mph - N/A   Clear
3:53 PM 81.0 °F - 50.0 °F 34% 30.07 in 10.0 mi Variable 6.9 mph - N/A   Clear
4:53 PM 80.1 °F - 51.1 °F 36% 30.06 in 10.0 mi Variable 4.6 mph - N/A   Clear
5:53 PM 81.0 °F - 50.0 °F 34% 30.05 in 10.0 mi NNW 4.6 mph - N/A   Clear
6:53 PM 81.0 °F - 50.0 °F 34% 30.03 in 10.0 mi Calm Calm - N/A   Clear
7:53 PM 78.1 °F - 54.0 °F 43% 30.02 in 10.0 mi ENE 4.6 mph - N/A   Clear
8:53 PM 73.0 °F - 57.0 °F 57% 30.03 in 10.0 mi NE 3.5 mph - N/A   Clear
9:53 PM 69.1 °F - 57.9 °F 68% 30.04 in 10.0 mi ENE 3.5 mph - N/A   Clear
10:53 PM 62.1 °F - 57.0 °F 84% 30.07 in 10.0 mi Calm Calm - N/A   Clear
11:53 PM 63.0 °F - 57.0 °F 81% 30.08 in 9.0 mi Calm Calm - N/A   Clear